This is the latest recevied weather packets stored in our database for station/object N0MPM-4. If no packets are shown the sender has not sent any weather packets the latest 10 day(s).
| Time | Temp. | Humidity | Pressure | Rain* | Wind** | Luminosity | Snow |
|---|---|---|---|---|---|---|---|
| 1787577740 | 19.44° C | 78% | 1017.6 hPa | 0 mm | - | - | - |
| 1787577497 | 19.44° C | 78% | 1017.4 hPa | 0 mm | - | - | - |
| 1787577378 | 19.44° C | 78% | 1017.4 hPa | 0 mm | - | - | - |
| 1787577197 | 19.44° C | 78% | 1017.5 hPa | 0 mm | - | - | - |
| 1787577019 | 19.44° C | 79% | 1017.6 hPa | 0 mm | - | - | - |
| 1787576897 | 18.89° C | 78% | 1017.6 hPa | 0 mm | - | - | - |
| 1787576659 | 18.89° C | 78% | 1017.5 hPa | 0 mm | - | - | - |
| 1787576597 | 18.89° C | 78% | 1017.5 hPa | 0 mm | - | - | - |
| 1787576298 | 18.33° C | 72% | 1017.6 hPa | 0 mm | - | - | - |
| 1787575998 | 18.33° C | 69% | 1017.7 hPa | 0 mm | - | - | - |
| 1787575939 | 17.78° C | 67% | 1017.7 hPa | 0 mm | - | - | - |
| 1787575698 | 17.78° C | 64% | 1017.7 hPa | 0 mm | - | - | - |
| 1787575579 | 17.78° C | 61% | 1017.7 hPa | 0 mm | - | - | - |
| 1787575397 | 17.78° C | 56% | 1017.7 hPa | 0 mm | - | - | - |
| 1787575220 | 17.22° C | 57% | 1017.8 hPa | 0 mm | - | - | - |
| 1787575098 | 17.22° C | 56% | 1017.8 hPa | 0 mm | - | - | - |
| 1787574859 | 17.22° C | 55% | 1017.7 hPa | 0 mm | - | - | - |
| 1787574798 | 17.22° C | 55% | 1017.7 hPa | 0 mm | - | - | - |
| 1787574498 | 16.67° C | 52% | 1017.7 hPa | 0 mm | - | - | - |
| 1787574198 | 16.67° C | 44% | 1017.4 hPa | 0 mm | - | - | - |
| 1787574139 | 16.67° C | 43% | 1017.3 hPa | 0 mm | - | - | - |
| 1787573898 | 16.67° C | 36% | 1017.1 hPa | 0 mm | - | - | - |
| 1787573779 | 16.67° C | 28% | 1017 hPa | 0 mm | - | - | - |
| 1787573598 | 16.67° C | 23% | 1016.9 hPa | 0 mm | - | - | - |
| 1787573419 | 16.67° C | 20% | 1016.9 hPa | 0 mm | - | - | - |
* Rain latest hour (hover to see other rain measurements)
** Current wind speed in m/s (hover to see current wind gust speed)